{"data":{"norad_id":48449,"epoch":"2026-09-19T23:22:17.292000Z","epoch_age_seconds":82656,"freshness":"FRESH","line1":"1 48449U 21040X   26262.97381125  .00032112  00000+0  10104-2 0  9996","line2":"2 48449  53.1610 353.9198 0002078  31.2103 328.9022 15.32688466296453","mean_motion":15.32688466,"eccentricity":0.0002078,"inclination_deg":53.161,"raan_deg":353.9198,"arg_perigee_deg":31.2103,"mean_anomaly_deg":328.9022,"bstar":0.0010104,"rev_number":29645,"period_min":93.952556696541,"perigee_km":466.37242854632,"apogee_km":469.21759789101,"semimajor_km":6845.9320132187,"source":"CELESTRAK","updated_at":"2026-09-20T09:00:39.126420Z"}}